Weather History for KLSE - August, 2013

Change the Weather History Date:

Monday, August 12, 2013

  Actual Average Record
Temperature  
Mean Temperature 72 °F 72 °F  
Max Temperature 82 °F 82 °F 98 °F (1936)
Min Temperature 61 °F 62 °F 46 °F (1982)
Degree Days  
Heating Degree Days 0 0  
Month to date heating degree days 1 0  
Since 1 June heating degree days 57  
Since 1 July heating degree days 13 5  
Cooling Degree Days 7 7  
Month to date cooling degree days 44 95  
Year to date cooling degree days 569 582  
Since 1 June cooling degree days 509  
Growing Degree Days 23 (Base 50)    
Moisture  
Dew Point 62 °F    
Average Humidity 69    
Maximum Humidity 100    
Minimum Humidity 37    
Precipitation  
Precipitation 0.00 in 0.14 in 1.07 in (1917)
Month to date precipitation 0.93 1.72  
Year to date precipitation 27.04 21.39  
Snow  
Snow 0.00 in 0.00 in 0.00 in (2002)
Month to date snowfall 0.0 0.0  
Since 1 June snowfall T  
Since 1 July snowfall T 0.0  
Snow Depth 0.00 in    
Sea Level Pressure  
Sea Level Pressure 29.99 in    
Wind  
Wind Speed 5 mph (NNW)    
Max Wind Speed 17 mph    
Max Gust Speed 21 mph    
Visibility 5 miles    
Events Fog    
T = Trace of Precipitation, MM = Missing Value Source: NWS Daily Summary

Daily Weather History Graph

Daily Weather History Graph

Search for Another Location

Airport or City:

Trip Planner

Search our weather history database for the weather conditions in past years. The results will help you decide how hot, cold, wet, or windy it might be!

Date:

Astronomy

Aug. 12, 2013 Rise Set
Actual Time 6:06 AM CDT 8:13 PM CDT
Civil Twilight 5:34 AM CDT 8:44 PM CDT
Nautical Twilight 4:55 AM CDT 9:23 PM CDT
Astronomical Twilight 4:12 AM CDT 10:05 PM CDT
Moon 12:11 PM CDT (8/12) 10:51 PM CDT (8/12)
Length of Visible Light 15h 10m
Length of Day
14h 07m
Waxing Crescent, 31% of the Moon is Illuminated
Aug 12
Waxing Crescent
Aug 14
First Quarter
Aug 20
Full
Aug 28
Last Quarter
Sep 5
New

Hourly Weather History & Observations

Time (CDT) Temp. Heat Index Dew Point Humidity Pressure Visibility Wind Dir Wind Speed Gust Speed Precip Events Conditions
12:22 AM 64.4 °F - 62.6 °F 94% 30.02 in 7.0 mi Calm Calm - N/A   Scattered Clouds
12:30 AM 66.2 °F - 64.4 °F 94% 30.02 in 9.0 mi Calm Calm - N/A   Mostly Cloudy
12:53 AM 66.0 °F - 63.0 °F 90% 30.00 in 8.0 mi ENE 3.5 mph - N/A   Mostly Cloudy
1:53 AM 66.0 °F - 64.0 °F 93% 30.00 in 7.0 mi Calm Calm - N/A   Overcast
2:53 AM 66.0 °F - 64.0 °F 93% 29.99 in 9.0 mi NNW 4.6 mph - N/A   Overcast
3:31 AM 64.4 °F - 64.4 °F 100% 30.01 in 1.5 mi Calm Calm - N/A   Overcast
3:41 AM 64.4 °F - 64.4 °F 100% 30.00 in 0.5 mi NW 4.6 mph - N/A Fog Fog
3:51 AM 64.4 °F - 64.4 °F 100% 30.00 in 0.2 mi NNW 3.5 mph - N/A Fog Fog
3:53 AM 64.9 °F - 64.0 °F 97% 29.98 in 0.2 mi NNW 3.5 mph - N/A Fog Fog
4:14 AM 64.4 °F - 64.4 °F 100% 29.99 in 0.8 mi Calm Calm - N/A   Mist
4:53 AM 64.9 °F - 64.0 °F 97% 29.96 in 0.5 mi Calm Calm - N/A Fog Fog
5:53 AM 64.0 °F - 63.0 °F 96% 29.97 in 1.0 mi North 4.6 mph - N/A   Mist
6:02 AM 64.4 °F - 62.6 °F 94% 30.00 in 3.0 mi North 3.5 mph - N/A   Overcast
6:11 AM 64.4 °F - 62.6 °F 94% 30.00 in 1.5 mi North 3.5 mph - N/A   Overcast
6:22 AM 64.4 °F - 62.6 °F 94% 30.00 in 0.5 mi North 4.6 mph - N/A Fog Fog
6:29 AM 64.4 °F - 62.6 °F 94% 30.00 in 0.2 mi North 5.8 mph - N/A Fog Fog
6:41 AM 64.4 °F - 62.6 °F 94% 30.00 in 0.8 mi North 3.5 mph - N/A   Mist
6:53 AM 64.0 °F - 63.0 °F 96% 29.99 in 1.0 mi North 4.6 mph - N/A   Overcast
7:06 AM 64.4 °F - 62.6 °F 94% 30.00 in 0.8 mi North 3.5 mph - N/A   Overcast
7:53 AM 64.9 °F - 63.0 °F 93% 29.97 in 0.5 mi Calm Calm - N/A Fog Fog
8:11 AM 64.4 °F - 62.6 °F 94% 29.99 in 1.5 mi Calm Calm - N/A   Overcast
8:24 AM 66.2 °F - 64.4 °F 94% 30.00 in 2.0 mi Calm Calm - N/A   Overcast
8:35 AM 64.4 °F - 64.4 °F 100% 30.00 in 1.2 mi Calm Calm - N/A   Overcast
8:53 AM 66.0 °F - 64.0 °F 93% 29.98 in 1.5 mi Calm Calm - N/A   Overcast
9:08 AM 66.2 °F - 64.4 °F 94% 29.99 in 2.5 mi Calm Calm - N/A   Overcast
9:38 AM 68.0 °F - 64.4 °F 88% 29.99 in 7.0 mi NW 3.5 mph - N/A   Overcast
9:53 AM 68.0 °F - 64.0 °F 87% 29.98 in 7.0 mi NW 4.6 mph - N/A   Overcast
10:53 AM 70.0 °F - 64.9 °F 84% 29.99 in 8.0 mi West 4.6 mph - N/A   Overcast
11:18 AM 71.6 °F - 64.4 °F 78% 30.00 in 10.0 mi Variable 4.6 mph - N/A   Mostly Cloudy
11:53 AM 73.9 °F - 62.1 °F 66% 29.98 in 10.0 mi NNW 4.6 mph - N/A   Mostly Cloudy
12:01 PM 75.2 °F - 62.6 °F 65% 30.00 in 10.0 mi North 3.5 mph - N/A   Partly Cloudy
12:53 PM 77.0 °F - 63.0 °F 62% 29.97 in 10.0 mi NNW 5.8 mph - N/A   Partly Cloudy
1:53 PM 79.0 °F - 60.1 °F 52% 29.96 in 10.0 mi West 5.8 mph - N/A   Clear
2:53 PM 80.1 °F 80.6 °F 57.9 °F 47% 29.95 in 10.0 mi NW 11.5 mph - N/A   Partly Cloudy
3:53 PM 82.0 °F 81.2 °F 53.1 °F 37% 29.94 in 10.0 mi NW 13.8 mph - N/A   Partly Cloudy
4:53 PM 81.0 °F 80.7 °F 55.0 °F 41% 29.93 in 10.0 mi NW 10.4 mph - N/A   Clear
5:53 PM 78.1 °F - 54.0 °F 43% 29.94 in 10.0 mi NW 10.4 mph - N/A   Clear
6:53 PM 75.9 °F - 57.9 °F 54% 29.94 in 10.0 mi NW 8.1 mph - N/A   Clear
7:53 PM 73.0 °F - 57.9 °F 59% 29.95 in 10.0 mi WNW 5.8 mph - N/A   Clear
8:53 PM 70.0 °F - 57.0 °F 63% 29.97 in 10.0 mi North 8.1 mph - N/A   Scattered Clouds
9:53 PM 66.0 °F - 55.0 °F 68% 30.00 in 10.0 mi NNW 5.8 mph - N/A   Clear
10:53 PM 63.0 °F - 54.0 °F 72% 30.02 in 10.0 mi North 5.8 mph - N/A   Clear